Home > Weather > Brampton > Past weeks

Flag for Canada Past Weather in Brampton, Ontario, Canada — Yesterday and Last 2 Weeks

Now
66 °F

Light rain. More clouds than sun.


Feels Like: 66 °F
Forecast: 68 / 80 °F
Wind: 7 mph from East

Location: Toronto Pearson International Airport

Current Time: Jul 30, 2016 at 9:19:20 AM

Latest Report: Jul 30, 2016 at 8:00 AM


Visibility: 15 mi

Pressure: 30.05 "Hg

Humidity: 68%

Dew Point: 55 °F

Location of BramptonLocation

Past Weather in Brampton — Graph

°F

Brampton Temperature Yesterday

Maximum temperature yesterday: 81 °F (at 3:00 PM)
Minimum temperature yesterday: 68 °F (at 5:00 AM)
Average temperature yesterday: 73 °F

High & Low Weather Summary for the Past Weeks

 TemperatureHumidityPressure
High95 °F (Jul 22, 3:00 PM)94% (Jul 25, 6:52 AM)30.28 "Hg (Jul 25, 6:52 AM)
Low57 °F (Jul 17, 5:00 AM)26% (Jul 22, 6:00 PM)29.81 "Hg (Jul 25, 3:00 PM)
Average75 °F56%29.98 "Hg
* Reported Jul 15 8:00 AM — Jul 30 8:00 AM, Brampton, Weather by CustomWeather, © 2016

Note: Actual official high and low records may vary slightly from our data, if they occured in-between our weather recording intervals... More about our weather records

Advertising

Brampton Weather History for the Previous 24 Hours

Scroll right to see more
 ConditionsComfort  
Time TempWeatherWind HumidityBarometerVisibility
8:00 AM
Sat, Jul 30
66 °FLight rain. More clouds than sun.7 mph68%30.05 "Hg15 mi
7:00 AM68 °FLight rain. Overcast.7 mph60%30.05 "Hg15 mi
6:00 AM68 °FPartly cloudy.7 mph56%30.02 "Hg15 mi
5:00 AM68 °FPartly cloudy.6 mph56%30.02 "Hg15 mi
4:00 AM68 °FPartly cloudy.7 mph56%30.02 "Hg15 mi
3:00 AM68 °FPartly cloudy.10 mph56%30.02 "Hg15 mi
2:00 AM70 °FPassing clouds.9 mph57%30.02 "Hg15 mi
1:00 AM70 °FPassing clouds.12 mph60%30.01 "Hg15 mi
12:00 AM72 °FPartly cloudy.14 mph57%30.01 "Hg15 mi
11:00 PM
Fri, Jul 29
72 °FPartly cloudy.10 mph61%30.01 "Hg15 mi
10:00 PM73 °FPassing clouds.9 mph53%29.99 "Hg15 mi
9:00 PM75 °FPartly sunny.9 mph50%29.98 "Hg15 mi
8:00 PM75 °FBroken clouds.2 mph57%29.97 "Hg15 mi
7:00 PM79 °FPartly sunny.7 mph48%29.96 "Hg15 mi
6:00 PM79 °FBroken clouds.9 mph48%29.95 "Hg15 mi
5:00 PM81 °FBroken clouds.6 mph48%29.95 "Hg15 mi
4:00 PM81 °FPartly sunny.10 mph48%29.95 "Hg15 mi
3:00 PM81 °FPartly sunny.7 mph48%29.96 "Hg15 mi
2:00 PM77 °FBroken clouds.10 mph54%29.97 "Hg15 mi
1:00 PM77 °FPartly sunny.6 mph51%29.98 "Hg15 mi
12:00 PM75 °FBroken clouds.3 mph54%29.98 "Hg15 mi
11:00 AM73 °FPartly sunny.6 mph53%29.98 "Hg15 mi
10:00 AM70 °FBroken clouds.8 mph64%29.98 "Hg15 mi
9:00 AM68 °FPartly sunny.9 mph69%29.97 "Hg15 mi
Weather by CustomWeather, © 2016

See weather overviewHow to use our weather pages